Location: Newark
(44.7333°N, 11.0000°E)
Time: 06:04:51
(UTC+00:00)

ISS - Visible Passes

Search period start: 12 November 2019 00:00
Search period end: 22 November 2019 00:00
Orbit: 412 x 421 km, 51.6° (Epoch: 12 November)

Date Brightness Start Highest point End Pass type
(mag) Time Alt. Az. Time Alt. Az. Time Alt. Az.
12 Nov -2.5 04:01:35 36° SSE 04:01:35 36° SSE 04:03:47 10° SE visible
13 Nov -1.7 04:48:32 14° SW 04:48:32 14° SW 04:50:22 10° SSW visible
14 Nov -1.0 04:02:37 12° S 04:02:37 12° S 04:03:00 10° SSE visible
20 Nov -1.3 17:28:16 10° S 17:28:54 12° SSE 17:28:54 12° SSE visible
21 Nov -1.1 18:14:50 10° SW 18:15:42 17° SW 18:15:42 17° SW visible
